Starlink 5449

operational
NORAD ID: 54780 Int'l Des: 2022-175 Owner: SPXS Country: US Constellation: starlink
LEOCIRCULAR

关于 Starlink 5449

正在加载描述...

实时位置

正在加载3D地球...

即将过境

高度历史

Altitude vs Time

uPlot chart will show altitude changes over time

两行轨道根数

1 54780U 22175Y 25350.31198978 .00000147 00000-0 27306-4 0 9996
2 54780 53.2182 43.3214 0001374 82.1764 277.9385 15.08833350167547
Epoch: Dec 16, 2025 • Age: 20 hours

当前状态

高度 544.4 km
速度 7.60 km/s
星下点 48.57°N, 30.44°E
发射日期 Dec 17, 2022
运行时间 2.9 years
类型 internet

技术详情

分类 Payload
质量 305.00 kg
干质量 290.00 kg
总质量 305.00 kg
长度 0.20 m
直径 2.80 m
跨度 9.00 m
形状 Box + pan
制造商 SPXS
平台类型 Starlink
阶段状态 In Orbit
所有者/国家 SPXS/US

大型星座

Loading constellations...